DELTA 1 DEB, 39102

Orbit data source: Space-Track

DELTA 1 DEB, 39102 is space debris in LEO originally from a launch on Thu, 14 Jul 1977 UTC launched from the Air Force Eastern Test Range (AFETR). Debris objects in space refer to the collection of defunct objects orbiting the Earth. Examples of debris include non-operational satellites, rocket bodies, and fragments generated from explosions, collisions, or faulty payload assembly.

Loading next visibility...
Identifier
39102, 1977-065GP
Orbit
LEO
Country
Flag of USUS
Related business
Manufacturer
Unknown
Mission
Spacecraft
Bus & Motor
Unknown
Mass
Unknown
Launch date (UTC)
1977-07-14 (49 years ago)
Launch vehicle
Unknown
Launch site
Air Force Eastern Test Range (AFETR)
Object type
Payload
Rocket body
Debris
Shape & HBR
Unknown shape, 0.1 m
Radar Cross Section
Medium (>0.1 m² and <1 m²)

Expand to show TLE details & history
Last TLE update: 21 hours ago

TLE from 21 hours ago
0 DELTA 1 DEB
1 39102U 77065GP  26262.51990821  .00000258  00000-0  55322-4 0  9999
2 39102  28.9946 350.6518 0926423 289.4126  60.8656 13.03424493568127
Epoch: 2026-09-19T12:28Z
TLE epoch observation values (Epoch: 2026-09-19T12:28:40.069Z)
Latitude
-0.00003°
Longitude
165.05753°
Altitude
956.518 km
Speed
7.514 km/s
True Right ascension
23h 22m 36s
True Declination
0° 00' 00"
Sunlit
Object was in full shadow at epoch
Visualization orbit readout
Latitude
Unknown
Longitude
Unknown
Altitude
Unknown
Speed
Unknown
Apparent Right ascension
Unknown
Apparent Declination
Unknown
Sunlit
N/A
Visualization observer readout
Local Sidereal Time
02:36:49
Azimuth
Unknown
Elevation
Unknown
Doppler factor
Unknown
Orbital elements
Apogee altitude
1,959.416 km
Perigee altitude
545.577 km
Semi-major axis
7,630.633 km
Eccentricity
0.09264
Inclination
28.9946°
RAAN
350.6518°
Arg. of periapsis
289.4126°
True anomaly
70.64312°
Mean anomaly
60.8656°
Eccentric anomaly
65.70347°
Mean motion
3.25613 °/min
Orbital period
110.56 mins
BSTAR
0.000055322
Loading maneuver chart data...
Computing Atmospheric mass density...
Loading historical data...
Loading historical data...
Loading historical data...
Loading historical data...
Loading historical data...
Loading historical data...
Loading historical data...

Documentation

Showing up to 5 results
|